sat.trackr.live / text

‹ back to catalog

STARLINK-3266

NORAD 50195 · 2021-125AR

PAYLOAD ACTIVE UNKNOWN

§ Identity

Operator
Country
US
Launch date
2021-12-18
Launch site
AFWTR
Launch vehicle
Mass (kg)
RCS (m²)

Purposes: comms

External: N2YO · Heavens-Above · Gunter

§ Orbital elements

Epoch: 2026-09-20T04:26:50.938656Z

Period
94.01 min
Inclination
53.1602°
Eccentricity
0.0001163
Mean motion
15.31690934 rev/d
Perigee alt
470.0 km
Apogee alt
471.6 km
Semi-major
6,848.9 km
B*
7.0641e-5
RAAN
74.7937°
Arg perigee
89.0178°
Mean anomaly
271.0957°
Rev number
26,624

§ Raw data

STARLINK-32661 50195U 21125AR  26263.18531179  .00001827  00000+0  70641-4 0  99942 50195  53.1602  74.7937 0001163  89.0178 271.0957 15.31690934266242

JSON: /api/v1/satellites/50195 · /tle

For live sub-satellite position, see the globe view (requires WebGL).

§ Visibility from observer

Set your observer location to see the next 7 days of passes ≥ 10°. The values pass through the URL so the page stays shareable.

No JS? Fill the form by hand. The geolocation button needs JavaScript.